Regional Weather Roundup
Issued by NWS Albany, NY

Home | Current Version | Previous Version | Text Only | Print | Product List | Glossary On
Versions: 1 2 3 4 5 6 7 8 9 10 11 12 13 14 15 16 17 18 19 20 21 22 23 24 25 26 27 28 29 30 31 32 33 34 35 36 37 38 39 40 41 42 43 44 45 46 47 48 49 50
000
ASUS41 KALY 230010
RWRALY

NEW YORK STATE HOURLY WEATHER ROUNDUP
NATIONAL WEATHER SERVICE ALBANY NY
800 PM EDT FRI MAY 22 2015

NOTE: "FAIR" INDICATES FEW OR NO CLOUDS BELOW 12,000 FEET WITH NO
SIGNIFICANT WEATHER AND/OR NO OBSTRUCTIONS TO VISIBILITY.

NYZ032-033-038>043-046>054-057>066-NYZ062>081-230100-
EAST


CITY           SKY/WX    TMP DP  RH WIND       PRES   REMARKS
ALBANY         PTCLDY    57  26  30 NW16G24   30.05R
GLENS FALLS    CLOUDY    55  30  38 W9        30.03R
POUGHKEEPSIE   CLEAR     64  29  26 NW10      30.00R
MONTGOMERY     CLEAR     63  33  32 N8        30.02R
WHITE PLAINS   MOCLDY    64  32  30 NW16G22   29.99R
ISLIP          MOCLDY    68  41  37 NW7       29.97R
NEW YORK CITY  MOCLDY    69  40  34 W12       29.98R
CENTRAL PARK   PTCLDY    68  40  35 VRB3      30.01R
$$

NYZ005>009-017-018-044>046-055-056-230100-
CENTRAL


CITY           SKY/WX    TMP DP  RH WIND       PRES   REMARKS
FULTON         CLEAR     49  25  39 W15G23    30.12R
SYRACUSE       MOCLDY    53  22  29 W12       30.12R
ROME           CLEAR     52  21  29 W15       30.09R
ELMIRA         PTCLDY    56  36  47 NW13G20   30.12R
BINGHAMTON     PTCLDY    51  33  50 N13       30.10R
MONTICELLO     PTCLDY    55  34  44 NW12      30.07R
$$

NYZ026>034-041>043-230100-
NORTH


CITY           SKY/WX    TMP DP  RH WIND       PRES   REMARKS
WATERTOWN      CLOUDY    46  41  82 E5        30.12R
FORT DRUM      NOT AVBL
MASSENA        MOCLDY    46  20  35 N12G22    30.13R
SARANAC LAKE   CLOUDY    41  24  51 N8        30.05R
PLATTSBURGH    CLOUDY    49  24  37 N10       30.06R
$$

NYZ001>004-010>016-019>021-230100-
WEST


CITY           SKY/WX    TMP DP  RH WIND       PRES   REMARKS
NIAGARA FALLS  CLEAR     51  24  34 NW13G23   30.21R
BUFFALO        CLEAR     52  27  38 N9        30.21R
DUNKIRK        CLEAR     52  29  41 W10       30.25R
JAMESTOWN      CLEAR     48  21  34 NW13G21   30.24R
WELLSVILLE     PTCLDY    50  25  37 NW24G30   30.17R
ROCHESTER      PTCLDY    49  24  37 NW14G24   30.19R
PENN YAN       PTCLDY    51  25  36 NW13G22   30.16R
$$

             KEY
       WCI = WIND CHILL INDEX
       VSB = VISIBILITY
       HX  = HEAT INDEX
$$


USA.gov is the U.S. government's official web portal to all federal, state and local government web resources and services.